Time,TemperatureF,DewpointF,PressureIn,WindDirection,WindDirectionDegrees,WindSpeedMPH,WindSpeedGustMPH,Humidity,HourlyPrecipIn,Conditions,Clouds,dailyrainin,SoftwareType,DateUTC
2015-05-24 00:05:00,47.2,34.4,30.28,WSW,257,0.0,1.0,61,0.00,,,0.00,Wunderground v.1.15,2015-05-24 04:05:00,
2015-05-24 00:11:00,47.3,36.1,30.28,WSW,257,0.0,0.0,65,0.00,,,0.00,Wunderground v.1.15,2015-05-24 04:11:00,
2015-05-24 00:16:00,47.2,36.0,30.28,WSW,257,0.0,0.0,65,0.00,,,0.00,Wunderground v.1.15,2015-05-24 04:16:00,
2015-05-24 00:22:00,47.0,35.0,30.28,WSW,257,0.0,0.0,63,0.00,,,0.00,Wunderground v.1.15,2015-05-24 04:22:00,
2015-05-24 00:27:00,47.0,33.8,30.28,WSW,257,0.0,0.0,60,0.00,,,0.00,Wunderground v.1.15,2015-05-24 04:27:00,
2015-05-24 00:32:00,47.4,33.8,30.28,WSW,257,1.0,2.0,59,0.00,,,0.00,Wunderground v.1.15,2015-05-24 04:32:00,
2015-05-24 00:38:00,48.1,34.4,30.27,SW,222,1.0,2.0,59,0.00,,,0.00,Wunderground v.1.15,2015-05-24 04:38:00,
2015-05-24 00:43:00,48.6,34.0,30.28,WNW,282,1.0,2.0,57,0.00,,,0.00,Wunderground v.1.15,2015-05-24 04:43:00,
2015-05-24 00:48:00,49.1,34.1,30.27,WSW,258,1.0,3.0,56,0.00,,,0.00,Wunderground v.1.15,2015-05-24 04:48:00,
2015-05-24 00:53:00,49.4,34.3,30.27,West,269,1.0,2.0,56,0.00,,,0.00,Wunderground v.1.15,2015-05-24 04:53:00,
2015-05-24 00:58:00,49.7,34.2,30.27,West,269,1.0,2.0,55,0.00,,,0.00,Wunderground v.1.15,2015-05-24 04:58:00,
2015-05-24 01:04:00,49.9,34.4,30.27,WSW,257,1.0,1.0,55,0.00,,,0.00,Wunderground v.1.15,2015-05-24 05:04:00,
2015-05-24 01:09:00,50.1,34.5,30.27,SW,235,1.0,2.0,55,0.00,,,0.00,Wunderground v.1.15,2015-05-24 05:09:00,
2015-05-24 01:14:00,50.2,34.6,30.27,SW,236,1.0,4.0,55,0.00,,,0.00,Wunderground v.1.15,2015-05-24 05:14:00,
2015-05-24 01:19:00,50.2,34.6,30.27,West,275,1.0,4.0,55,0.00,,,0.00,Wunderground v.1.15,2015-05-24 05:19:00,
2015-05-24 01:24:00,50.2,34.6,30.27,SW,230,1.0,1.0,55,0.00,,,0.00,Wunderground v.1.15,2015-05-24 05:24:00,
2015-05-24 01:29:00,50.1,34.5,30.27,SW,232,0.0,1.0,55,0.00,,,0.00,Wunderground v.1.15,2015-05-24 05:29:00,
2015-05-24 01:35:00,49.9,34.8,30.27,SW,230,0.0,4.0,56,0.00,,,0.00,Wunderground v.1.15,2015-05-24 05:35:00,
2015-05-24 01:40:00,49.8,35.2,30.27,WSW,251,0.0,4.0,57,0.00,,,0.00,Wunderground v.1.15,2015-05-24 05:40:00,
2015-05-24 01:45:00,49.8,35.2,30.27,WSW,243,1.0,6.0,57,0.00,,,0.00,Wunderground v.1.15,2015-05-24 05:45:00,
2015-05-24 01:50:00,49.7,35.1,30.27,SSW,213,1.0,4.0,57,0.00,,,0.00,Wunderground v.1.15,2015-05-24 05:50:00,
2015-05-24 01:55:00,49.7,35.1,30.27,WSW,246,1.0,4.0,57,0.00,,,0.00,Wunderground v.1.15,2015-05-24 05:55:00,
2015-05-24 02:00:00,49.7,35.1,30.27,WSW,238,0.0,0.0,57,0.00,,,0.00,Wunderground v.1.15,2015-05-24 06:00:00,
2015-05-24 02:06:00,49.6,35.4,30.26,SW,227,0.0,2.0,58,0.00,,,0.00,Wunderground v.1.15,2015-05-24 06:06:00,
2015-05-24 02:11:00,49.5,35.8,30.27,WSW,254,0.0,0.0,59,0.00,,,0.00,Wunderground v.1.15,2015-05-24 06:11:00,
2015-05-24 02:16:00,49.3,36.0,30.27,SSW,202,0.0,0.0,60,0.00,,,0.00,Wunderground v.1.15,2015-05-24 06:16:00,
2015-05-24 02:21:00,49.2,35.9,30.27,SSE,165,0.0,0.0,60,0.00,,,0.00,Wunderground v.1.15,2015-05-24 06:21:00,
2015-05-24 02:26:00,49.1,36.2,30.26,SSE,165,0.0,1.0,61,0.00,,,0.00,Wunderground v.1.15,2015-05-24 06:26:00,
2015-05-24 02:31:00,49.1,36.2,30.26,SSE,168,0.0,6.0,61,0.00,,,0.00,Wunderground v.1.15,2015-05-24 06:31:00,
2015-05-24 02:36:00,49.0,36.5,30.27,SSW,212,0.0,6.0,62,0.00,,,0.00,Wunderground v.1.15,2015-05-24 06:36:00,
2015-05-24 02:41:00,49.0,36.5,30.27,SSW,212,0.0,6.0,62,0.00,,,0.00,Wunderground v.1.15,2015-05-24 06:41:00,
2015-05-24 02:46:00,49.0,36.9,30.27,SSW,207,0.0,6.0,63,0.00,,,0.00,Wunderground v.1.15,2015-05-24 06:46:00,
2015-05-24 02:51:00,49.0,36.9,30.26,SSW,203,0.0,6.0,63,0.00,,,0.00,Wunderground v.1.15,2015-05-24 06:51:00,
2015-05-24 02:57:00,49.1,37.4,30.26,SSW,202,0.0,6.0,64,0.00,,,0.00,Wunderground v.1.15,2015-05-24 06:57:00,
2015-05-24 03:02:00,49.0,37.3,30.26,SSW,198,0.0,0.0,64,0.00,,,0.00,Wunderground v.1.15,2015-05-24 07:02:00,
2015-05-24 03:07:00,48.9,37.3,30.26,SSW,198,0.0,0.0,64,0.00,,,0.00,Wunderground v.1.15,2015-05-24 07:07:00,
2015-05-24 03:12:00,48.7,37.5,30.26,SSW,198,0.0,0.0,65,0.00,,,0.00,Wunderground v.1.15,2015-05-24 07:12:00,
2015-05-24 03:17:00,48.5,37.7,30.26,SSW,198,0.0,0.0,66,0.00,,,0.00,Wunderground v.1.15,2015-05-24 07:17:00,
2015-05-24 03:23:00,48.3,37.8,30.26,SSW,198,0.0,0.0,67,0.00,,,0.00,Wunderground v.1.15,2015-05-24 07:23:00,
2015-05-24 03:28:00,48.2,37.8,30.26,SSW,198,0.0,1.0,67,0.00,,,0.00,Wunderground v.1.15,2015-05-24 07:28:00,
2015-05-24 03:34:00,48.0,37.6,30.26,SW,217,0.0,2.0,67,0.00,,,0.00,Wunderground v.1.15,2015-05-24 07:34:00,
2015-05-24 03:40:00,47.9,37.8,30.26,SSW,212,0.0,2.0,68,0.00,,,0.00,Wunderground v.1.15,2015-05-24 07:40:00,